Weather in Mstsislaw

Belarus     54°01′10″N   31°43′29″E
temp.,
°C
wind,
m/s
gust,
m/s
humid.,
%
clouds,
%
prec.,
mm/h
press.,
hPa
HPBL,
m
26 february, fri
fri2600:00+2w36100100 0.0 1021146
03:00+2wsw499998 0.0 1019198
06:00+2wsw6129882 0.0 1017348
09:00+3wsw7139991 0.1 1015387
12:00+3w715100100 0.0 1014381
15:00+4w51398100 0.0 1013510
18:00+3w5138579 0.0 1013363
21:00+2wnw5138984 0.0 1013439
27 february, sat
sat2700:00+2w51292100 0.1 1011387
03:00+1w51194100 0.1 1012442
06:00+1wnw4998100 0.3 1010337
09:00+1wnw4898100 0.8 1011337
12:00+1nw4899100 0.3 1011299
15:00+1nnw4997100 0.4 1013393
18:00+1nnw4998100 0.1 1014443
21:000n5997100 0.1 1016490
28 february, sun
sun2800:000nnw599198 0.1 1018550
03:00−1nnw5109298 0.2 1020467
06:00−1nnw599191 0.0 1021469
09:00−1nnw489195 0.1 1022691
12:00+1nnw577992 0.1 1022856
15:00+1nw467996 0.2 1022790
18:000nw3783100 0.1 1022497
21:00−1nnw368897 0.1 1024193
1 march, mon
mon100:00−2n249352 0.0 102597
03:00−2nnw239527 0.0 102678
06:00−3nw239625 0.0 102762
09:00−1nw379756 0.2 1028312
12:00+1nw469194 0.0 1028499
15:00+1nw388797 0.0 1028509
18:00+1w3690100 0.0 1028187
21:00+1w4995100 0.0 1027337
2 march, tue
tue200:00+1wnw3895100 0.0 1026284
03:000w41096100 0.0 1025278
06:00+1wnw51293100 0.0 1024422
09:00+1nw61291100 0.0 1024478
12:00+3nw61281100 0.0 1025600
15:00+5nw61177100 0.0 1024782
18:00+3nw513863 0.0 1024408
21:00+2nw413891 0.0 1025317